Date String (YYYY-MM-DD hh:mm:ss) UTC,Instrument flags,absolute air pressure of the measurement (hPa),sample flow rate (lpm),inlet stack bypass flow (lpm),air temperature of the measurement (°C),ambient temperature measured by the external sensor (°C),aerosol sample conditioner tube jacket temperature (°C),OPC LED temperature (°C),internal box temperature (°C),relative humidity of the measurement (%),span deviation,mass concentration of particles derived from Lorenz-Mie calculation of OPC scattering (μg/m³),mass concentration of particles derived from Lorenz-Mie calculation of OPC scattering (μg/m³),mass concentration of particles derived from Lorenz-Mie calculation of OPC scattering (μg/m³)
DateTimeUTC,F1_M11,P_M11,Q1_M11,Q2_M11,T1_M11,T2_M11,T3_M11,T4_M11,T5_M11,U1_M11,ZSPAN_M11,X0_M11,X2_M11,X1_M11
2024-02-21 19:00:00,SystemResetWarning,0822.2,5.00,000.00,024.3,023.7,000.0,032.6,026.1,16.7,0000.0,0014.88,0006.06,0005.33
2024-02-21 19:01:00,SystemResetWarning,0822.1,5.00,000.00,024.3,023.7,000.0,032.6,026.2,17.0,0000.0,0013.66,0006.08,0005.33
2024-02-21 19:02:00,SystemResetWarning,0822.1,5.00,000.00,024.3,023.7,000.0,032.6,026.2,17.2,0000.0,0013.23,0006.11,0005.33
2024-02-21 19:03:00,SystemResetWarning,0822.2,5.01,000.00,024.3,023.7,000.0,032.6,026.2,17.1,0000.0,0013.92,0006.20,0005.40
2024-02-21 19:04:00,SystemResetWarning,0822.1,5.01,000.00,024.3,023.7,000.0,032.6,026.2,17.3,0000.0,0013.80,0006.26,0005.44
2024-02-21 19:05:00,SystemResetWarning,0822.0,5.00,000.00,024.3,023.7,000.0,032.7,026.2,17.4,0000.0,0013.15,0006.21,0005.46
2024-02-21 19:06:00,SystemResetWarning,0821.9,5.00,000.00,024.3,023.7,000.0,032.7,026.2,17.5,0000.0,0013.00,0006.17,0005.44
2024-02-21 19:07:00,SystemResetWarning,0822.0,4.99,000.00,024.3,023.7,000.0,032.7,026.2,17.8,0000.0,0012.68,0006.18,0005.44
2024-02-21 19:08:00,SystemResetWarning,0822.0,5.00,000.00,024.4,023.8,000.0,032.7,026.3,17.8,0000.0,0011.71,0006.17,0005.44
2024-02-21 19:09:00,SystemResetWarning,0822.0,5.01,000.00,024.4,023.8,000.0,032.7,026.3,17.5,0000.0,0011.27,0006.16,0005.46
2024-02-21 19:10:00,SystemResetWarning,0822.0,5.01,000.00,024.4,023.8,000.0,032.7,026.3,16.9,0000.0,0011.06,0006.15,0005.48
2024-02-21 19:11:00,SystemResetWarning,0822.0,5.00,000.00,024.4,023.8,000.0,032.7,026.3,16.8,0000.0,0010.92,0006.15,0005.51
2024-02-21 19:12:00,SystemResetWarning,0822.0,4.99,000.00,024.4,023.8,000.0,032.7,026.3,16.3,0000.0,0010.86,0006.13,0005.54
2024-02-21 19:13:00,SystemResetWarning,0821.9,4.99,000.00,024.4,023.8,000.0,032.7,026.3,16.4,0000.0,0011.59,0006.22,0005.61
2024-02-21 19:14:00,SystemResetWarning,0821.9,5.00,000.00,024.4,023.8,000.0,032.7,026.3,16.2,0000.0,0011.55,0006.26,0005.63
2024-02-21 19:15:00,SystemResetWarning,0821.9,5.00,000.00,024.4,023.8,000.0,032.8,026.3,16.3,0000.0,0011.88,0006.30,0005.66
2024-02-21 19:16:00,SystemResetWarning,0821.8,5.00,000.00,024.4,023.8,000.0,032.8,026.3,16.8,0000.0,0012.10,0006.36,0005.71
2024-02-21 19:17:00,SystemResetWarning,0821.8,5.00,000.00,024.4,023.8,000.0,032.8,026.3,16.6,0000.0,0012.02,0006.37,0005.74
2024-02-21 19:18:00,SystemResetWarning,0821.8,5.01,000.00,024.4,023.8,000.0,032.8,026.3,16.4,0000.0,0012.36,0006.37,0005.77
2024-02-21 19:19:00,SystemResetWarning,0821.8,5.00,000.00,024.5,023.9,000.0,032.8,026.3,16.3,0000.0,0012.99,0006.38,0005.81
2024-02-21 19:20:00,SystemResetWarning,0821.7,5.00,000.00,024.5,023.9,000.0,032.8,026.4,16.4,0000.0,0013.47,0006.40,0005.84
2024-02-21 19:21:00,SystemResetWarning,0821.7,5.00,000.00,024.5,023.9,000.0,032.8,026.3,16.7,0000.0,0014.14,0006.41,0005.85
2024-02-21 19:22:00,SystemResetWarning,0821.7,4.99,000.00,024.5,023.9,000.0,032.8,026.4,17.2,0000.0,0014.81,0006.49,0005.86
2024-02-21 19:23:00,SystemResetWarning,0821.6,5.01,000.00,024.5,023.9,000.0,032.8,026.3,17.4,0000.0,0015.26,0006.55,0005.87
2024-02-21 19:24:00,SystemResetWarning,0821.6,5.00,000.00,024.5,023.9,000.0,032.8,026.4,17.7,0000.0,0014.76,0006.51,0005.85
2024-02-21 19:25:00,SystemResetWarning,0821.6,5.00,000.00,024.5,023.9,000.0,032.8,026.4,17.8,0000.0,0014.85,0006.49,0005.83
2024-02-21 19:26:00,SystemResetWarning,0821.6,5.00,000.00,024.5,023.9,000.0,032.9,026.4,17.8,0000.0,0015.49,0006.48,0005.81
2024-02-21 19:27:00,SystemResetWarning,0821.7,5.00,000.00,024.5,023.9,000.0,032.9,026.4,18.0,0000.0,0016.58,0006.47,0005.77
2024-02-21 19:28:00,SystemResetWarning,0821.6,5.00,000.00,024.5,023.9,000.0,032.9,026.4,18.0,0000.0,0016.57,0006.47,0005.74
2024-02-21 19:29:00,SystemResetWarning,0821.6,4.99,000.00,024.5,023.9,000.0,032.9,026.4,17.6,0000.0,0016.34,0006.48,0005.73
2024-02-21 19:30:00,SystemResetWarning,0821.6,5.00,000.00,024.6,023.9,000.0,032.9,026.4,17.4,0000.0,0015.98,0006.53,0005.72
2024-02-21 19:31:00,SystemResetWarning,0821.6,5.00,000.00,024.6,024.0,000.0,032.9,026.5,17.1,0000.0,0015.86,0006.59,0005.71
2024-02-21 19:32:00,SystemResetWarning,0821.5,5.00,000.00,024.6,024.0,000.0,032.9,026.5,17.4,0000.0,0015.48,0006.60,0005.71
2024-02-21 19:33:00,SystemResetWarning,0821.6,5.00,000.00,024.6,024.0,000.0,032.9,026.5,17.5,0000.0,0015.36,0006.59,0005.72
2024-02-21 19:34:00,SystemResetWarning,0821.6,4.99,000.00,024.6,024.0,000.0,032.9,026.5,17.5,0000.0,0015.43,0006.57,0005.73
2024-02-21 19:35:00,SystemResetWarning,0821.6,5.00,000.00,024.6,024.0,000.0,032.9,026.5,17.3,0000.0,0016.08,0006.61,0005.75
2024-02-21 19:36:00,SystemResetWarning,0821.5,5.00,000.00,024.6,024.0,000.0,032.9,026.5,17.8,0000.0,0016.02,0006.63,0005.77
2024-02-21 19:37:00,SystemResetWarning,0821.7,5.00,000.00,024.6,024.0,000.0,033.0,026.5,17.7,0000.0,0015.15,0006.63,0005.79
2024-02-21 19:38:00,SystemResetWarning,0821.9,5.00,000.00,024.6,024.0,000.0,033.0,026.5,17.6,0000.0,0013.91,0006.62,0005.79
2024-02-21 19:39:00,SystemResetWarning,0822.0,5.01,000.00,024.6,024.0,000.0,033.0,026.5,17.3,0000.0,0013.93,0006.62,0005.81
2024-02-21 19:40:00,SystemResetWarning,0822.0,5.00,000.00,024.7,024.0,000.0,033.0,026.5,16.8,0000.0,0013.45,0006.60,0005.80
2024-02-21 19:41:00,SystemResetWarning,0822.0,5.00,000.00,024.7,024.1,000.0,033.0,026.6,16.1,0000.0,0013.29,0006.52,0005.79
2024-02-21 19:42:00,SystemResetWarning,0821.4,5.00,000.00,024.7,024.1,000.0,033.0,026.6,16.8,0000.0,0013.49,0006.45,0005.77
2024-02-21 19:43:00,SystemResetWarning,0821.3,5.00,000.00,024.7,024.1,000.0,033.0,026.6,17.1,0000.0,0013.27,0006.40,0005.73
2024-02-21 19:44:00,SystemResetWarning,0821.6,4.99,000.00,024.7,024.1,000.0,033.0,026.6,16.8,0000.0,0013.75,0006.38,0005.68
2024-02-21 19:45:00,SystemResetWarning,0821.6,4.99,000.00,024.7,024.1,000.0,033.0,026.6,16.9,0000.0,0013.57,0006.37,0005.64
2024-02-21 19:46:00,SystemResetWarning,0821.3,4.99,000.00,024.7,024.1,000.0,033.0,026.6,17.2,0000.0,0013.16,0006.30,0005.60
2024-02-21 19:47:00,SystemResetWarning,0821.3,5.00,000.00,024.7,024.1,000.0,033.1,026.6,17.2,0000.0,0012.54,0006.26,0005.56
2024-02-21 19:48:00,SystemResetWarning,0821.2,5.01,000.00,024.7,024.1,000.0,033.1,026.6,17.1,0000.0,0012.31,0006.20,0005.53
2024-02-21 19:49:00,SystemResetWarning,0821.1,5.00,000.00,024.8,024.1,000.0,033.1,026.6,16.7,0000.0,0013.00,0006.19,0005.49
2024-02-21 19:50:00,SystemResetWarning,0821.3,4.99,000.00,024.8,024.2,000.0,033.1,026.7,16.0,0000.0,0013.37,0006.18,0005.44
2024-02-21 19:51:00,SystemResetWarning,0821.2,4.99,000.00,024.8,024.2,000.0,033.1,026.6,15.9,0000.0,0013.35,0006.14,0005.41
2024-02-21 19:52:00,SystemResetWarning,0821.2,4.99,000.00,024.8,024.2,000.0,033.1,026.7,15.9,0000.0,0012.98,0006.10,0005.38
2024-02-21 19:53:00,SystemResetWarning,0821.3,5.01,000.00,024.8,024.2,000.0,033.1,026.7,16.1,0000.0,0012.49,0006.11,0005.37
2024-02-21 19:54:00,SystemResetWarning,0821.1,5.01,000.00,024.8,024.2,000.0,033.1,026.7,16.7,0000.0,0013.52,0006.14,0005.36
2024-02-21 19:55:00,SystemResetWarning,0821.1,5.00,000.00,024.8,024.2,000.0,033.1,026.7,16.6,0000.0,0013.50,0006.10,0005.36
2024-02-21 19:56:00,SystemResetWarning,0821.2,5.00,000.00,024.8,024.2,000.0,033.1,026.7,16.5,0000.0,0013.40,0006.09,0005.36
2024-02-21 19:57:00,SystemResetWarning,0821.2,4.99,000.00,024.8,024.2,000.0,033.2,026.7,16.3,0000.0,0013.15,0006.12,0005.38
2024-02-21 19:58:00,SystemResetWarning,0821.2,5.00,000.00,024.8,024.2,000.0,033.2,026.7,15.9,0000.0,0013.05,0006.10,0005.38
2024-02-21 19:59:00,SystemResetWarning,0821.1,5.00,000.00,024.9,024.2,000.0,033.2,026.7,16.1,0000.0,0013.94,0006.12,0005.37
